FENGYUN 1C DEB *, 47012

Orbit data source: Space-Track

FENGYUN 1C DEB *, 47012 is space debris in SSO originally from a launch on Mon, 10 May 1999 UTC launched from the Taiyaun Space Center, China (TSC). Fengyun 1C debris stems from the Chinese weather satellite Fengyun-1C, which was intentionally destroyed by a Chinese anti-satellite missile in 2007. This event dramatically increased the amount of space debris, with thousands of trackable fragments posing hazards to satellites and human spaceflight. The Fengyun 1C debris cloud has become a focal point in discussions about space sustainability and the need for international regulations to prevent the creation of new debris.

Loading next visibility...
Identifier
47012, 1999-025FAN
Orbit
SSO
Country
Flag of CNCN / PRC
Related business
Manufacturer
Unknown
Mission
Spacecraft
Bus & Motor
Unknown
Mass
Unknown
Launch date (UTC)
1999-05-10 (26 years ago)
Launch vehicle
Unknown
Launch site
Taiyaun Space Center, China (TSC)
Object type
Payload
Rocket body
Debris
Shape & HBR
Unknown
Radar Cross Section
Small (<0.1 m²)

Expand to show TLE details & history
Last TLE update: 23 hours ago

TLE from 23 hours ago
0 FENGYUN 1C DEB *
1 47012U 99025FAN 25259.90913923  .00000291  00000-0  30039-3 0  9998
2 47012  98.7632 145.0635 0163291 296.8089  61.6444 13.77815514533771
Epoch: 2025-09-16T21:49Z
TLE epoch observation values (Epoch: 2025-09-16T21:49:09.629Z)
Latitude
-0.00002°
Longitude
-178.3193°
Altitude
919.025 km
Speed
7.42 km/s
True Right ascension
09h 40m 15s
True Declination
0° 00' 00"
Sunlit
Object was in daylight at epoch
Visualization orbit readout
Latitude
Unknown
Longitude
Unknown
Altitude
Unknown
Speed
Unknown
Apparent Right ascension
Unknown
Apparent Declination
Unknown
Sunlit
N/A
Visualization observer readout
Local Sidereal Time
13:57:31
Azimuth
Unknown
Elevation
Unknown
Doppler factor
Unknown
Orbital elements
Apogee altitude
1,088.832 km
Perigee altitude
848.892 km
Semi-major axis
7,346.999 km
Eccentricity
0.01633
Inclination
98.7632°
RAAN
145.0635°
Arg. of periapsis
296.8089°
True anomaly
63.30695°
Mean anomaly
61.6444°
Eccentric anomaly
62.47408°
Mean motion
3.4465 °/min
Orbital period
104.45 mins
BSTAR
0.00030039
Loading maneuver chart data...
Computing Atmospheric mass density...
Loading historical data...
Loading historical data...
Loading historical data...
Loading historical data...
Loading historical data...
Loading historical data...
Loading historical data...

Documentation

Showing up to 5 results
|